Location: Saint Louis
(38.6272°N, 90.1978°W)
Time: 21:53:32
(UTC-05:00)

ISS - Pass Details

Date: 12 August 2013
Orbit: 402 x 403 km, 51.6° (Epoch: 25 June)

Event Time Altitude Azimuth Distance (km) Brightness Sun altitude
Rises 23:12:38 0° 316° (NW) 2,321 1.6 -30.5°
Reaches altitude 10° 23:14:55 10° 329° (NNW) 1,457 0.4 -30.8°
Enters shadow 23:15:13 12° 332° (NNW) 1,355 0.2 -30.8°
